Time,TemperatureF,DewpointF,PressureIn,WindDirection,WindDirectionDegrees,WindSpeedMPH,WindSpeedGustMPH,Humidity,HourlyPrecipIn,Conditions,Clouds,dailyrainin,SolarRadiationWatts/m^2,SoftwareType,DateUTC
2013-12-26 00:05:00,19.9,15.3,30.54,SSW,207,0.0,0.0,82,0.00,,,0.00,0,Wunderground v.1.15,2013-12-26 08:05:00,
2013-12-26 00:15:00,19.7,14.8,30.54,SSW,207,0.0,0.0,81,0.00,,,0.00,0,Wunderground v.1.15,2013-12-26 08:15:00,
2013-12-26 00:25:00,19.5,14.6,30.53,SSW,207,0.0,0.0,81,0.00,,,0.00,0,Wunderground v.1.15,2013-12-26 08:25:00,
2013-12-26 00:30:00,19.4,14.5,30.53,SSW,207,0.0,0.0,81,0.00,,,0.00,0,Wunderground v.1.15,2013-12-26 08:30:00,
2013-12-26 00:40:00,19.1,14.2,30.53,SSW,207,0.0,0.0,81,0.00,,,0.00,0,Wunderground v.1.15,2013-12-26 08:40:00,
2013-12-26 00:45:00,18.9,14.3,30.53,SSW,207,0.0,0.0,82,0.00,,,0.00,0,Wunderground v.1.15,2013-12-26 08:45:00,
2013-12-26 00:55:00,18.8,14.2,30.53,SSW,207,0.0,0.0,82,0.00,,,0.00,0,Wunderground v.1.15,2013-12-26 08:55:00,
2013-12-26 01:00:00,18.4,13.5,30.53,SSW,207,0.0,0.0,81,0.00,,,0.00,0,Wunderground v.1.15,2013-12-26 09:00:00,
2013-12-26 01:05:00,18.3,13.7,30.55,SSW,207,0.0,0.0,82,0.00,,,0.00,0,Wunderground v.1.15,2013-12-26 09:05:00,
2013-12-26 01:15:00,18.4,14.1,30.54,SSW,207,0.0,0.0,83,0.00,,,0.00,0,Wunderground v.1.15,2013-12-26 09:15:00,
2013-12-26 01:25:00,18.6,14.0,30.54,SSW,207,0.0,0.0,82,0.00,,,0.00,0,Wunderground v.1.15,2013-12-26 09:25:00,
2013-12-26 01:30:00,18.6,14.0,30.54,SSW,207,0.0,0.0,82,0.00,,,0.00,0,Wunderground v.1.15,2013-12-26 09:30:00,
2013-12-26 01:35:00,18.8,14.2,30.53,SSW,207,0.0,0.0,82,0.00,,,0.00,0,Wunderground v.1.15,2013-12-26 09:35:00,
2013-12-26 01:45:00,18.8,14.2,30.54,SSW,207,0.0,0.0,82,0.00,,,0.00,0,Wunderground v.1.15,2013-12-26 09:45:00,
2013-12-26 01:55:00,18.4,13.5,30.55,SSW,207,0.0,0.0,81,0.00,,,0.00,0,Wunderground v.1.15,2013-12-26 09:55:00,
2013-12-26 02:00:00,18.4,13.5,30.54,SSW,207,0.0,0.0,81,0.00,,,0.00,0,Wunderground v.1.15,2013-12-26 10:00:00,
2013-12-26 02:10:00,18.1,13.5,30.54,SSW,207,0.0,0.0,82,0.00,,,0.00,0,Wunderground v.1.15,2013-12-26 10:10:00,
2013-12-26 02:15:00,18.1,13.3,30.54,SSW,207,0.0,0.0,81,0.00,,,0.00,0,Wunderground v.1.15,2013-12-26 10:15:00,
2013-12-26 02:25:00,18.0,13.2,30.54,SSW,207,0.0,0.0,81,0.00,,,0.00,0,Wunderground v.1.15,2013-12-26 10:25:00,
2013-12-26 02:35:00,18.0,13.2,30.54,SSW,207,0.0,0.0,81,0.00,,,0.00,0,Wunderground v.1.15,2013-12-26 10:35:00,
2013-12-26 02:45:00,17.7,12.9,30.54,SSW,207,0.0,0.0,81,0.00,,,0.00,0,Wunderground v.1.15,2013-12-26 10:45:00,
2013-12-26 02:50:00,17.5,12.7,30.53,SSW,207,0.0,0.0,81,0.00,,,0.00,0,Wunderground v.1.15,2013-12-26 10:50:00,
2013-12-26 02:55:00,17.3,12.5,30.54,SSW,207,0.0,0.0,81,0.00,,,0.00,0,Wunderground v.1.15,2013-12-26 10:55:00,
2013-12-26 03:05:00,17.2,12.4,30.55,SSW,207,0.0,0.0,81,0.00,,,0.00,0,Wunderground v.1.15,2013-12-26 11:05:00,
2013-12-26 03:10:00,16.9,12.1,30.54,SSW,207,0.0,0.0,81,0.00,,,0.00,0,Wunderground v.1.15,2013-12-26 11:10:00,
2013-12-26 03:15:00,16.7,12.2,30.54,SSW,207,0.0,0.0,82,0.00,,,0.00,0,Wunderground v.1.15,2013-12-26 11:15:00,
2013-12-26 03:25:00,16.7,12.2,30.54,SSW,207,0.0,0.0,82,0.00,,,0.00,0,Wunderground v.1.15,2013-12-26 11:25:00,
2013-12-26 03:35:00,16.7,12.2,30.54,SSW,207,0.0,0.0,82,0.00,,,0.00,0,Wunderground v.1.15,2013-12-26 11:35:00,
2013-12-26 03:40:00,16.9,12.4,30.54,SSW,207,0.0,0.0,82,0.00,,,0.00,0,Wunderground v.1.15,2013-12-26 11:40:00,
2013-12-26 03:50:00,17.0,12.2,30.54,SSW,207,0.0,0.0,81,0.00,,,0.00,0,Wunderground v.1.15,2013-12-26 11:50:00,
2013-12-26 03:55:00,17.2,12.4,30.54,SSW,207,0.0,0.0,81,0.00,,,0.00,0,Wunderground v.1.15,2013-12-26 11:55:00,
2013-12-26 04:05:00,17.5,12.7,30.54,SSW,207,0.0,0.0,81,0.00,,,0.00,0,Wunderground v.1.15,2013-12-26 12:05:00,
2013-12-26 04:15:00,17.8,13.2,30.54,SSW,207,0.0,0.0,82,0.00,,,0.00,0,Wunderground v.1.15,2013-12-26 12:15:00,
2013-12-26 04:25:00,18.0,13.4,30.54,SSW,207,0.0,0.0,82,0.00,,,0.00,0,Wunderground v.1.15,2013-12-26 12:25:00,
2013-12-26 04:35:00,18.3,13.4,30.54,SSW,207,0.0,0.0,81,0.00,,,0.00,0,Wunderground v.1.15,2013-12-26 12:35:00,
2013-12-26 04:40:00,18.3,13.7,30.54,SSW,207,0.0,0.0,82,0.00,,,0.00,0,Wunderground v.1.15,2013-12-26 12:40:00,
2013-12-26 04:50:00,18.3,13.4,30.54,SSW,207,0.0,0.0,81,0.00,,,0.00,0,Wunderground v.1.15,2013-12-26 12:50:00,
2013-12-26 04:55:00,18.4,13.5,30.54,SSW,207,0.0,0.0,81,0.00,,,0.00,0,Wunderground v.1.15,2013-12-26 12:55:00,
2013-12-26 05:05:00,18.8,13.9,30.53,SSW,207,0.0,0.0,81,0.00,,,0.00,0,Wunderground v.1.15,2013-12-26 13:05:00,
2013-12-26 05:15:00,18.9,14.0,30.53,SSW,207,0.0,0.0,81,0.00,,,0.00,0,Wunderground v.1.15,2013-12-26 13:15:00,
2013-12-26 05:25:00,19.1,14.2,30.54,SSW,207,0.0,0.0,81,0.00,,,0.00,0,Wunderground v.1.15,2013-12-26 13:25:00,
2013-12-26 05:35:00,19.4,14.2,30.53,SSW,207,0.0,0.0,80,0.00,,,0.00,0,Wunderground v.1.15,2013-12-26 13:35:00,
2013-12-26 05:40:00,19.4,14.2,30.53,SSW,207,0.0,0.0,80,0.00,,,0.00,0,Wunderground v.1.15,2013-12-26 13:40:00,
2013-12-26 05:50:00,19.5,14.3,30.53,SSW,207,0.0,0.0,80,0.00,,,0.00,0,Wunderground v.1.15,2013-12-26 13:50:00,
2013-12-26 06:00:00,19.9,14.7,30.52,SSW,207,0.0,0.0,80,0.00,,,0.00,0,Wunderground v.1.15,2013-12-26 14:00:00,
2013-12-26 06:10:00,20.0,15.1,30.53,SSW,207,0.0,0.0,81,0.00,,,0.00,0,Wunderground v.1.15,2013-12-26 14:10:00,
2013-12-26 06:20:00,20.5,15.6,30.53,SSW,207,0.0,0.0,81,0.00,,,0.00,0,Wunderground v.1.15,2013-12-26 14:20:00,
2013-12-26 06:25:00,20.6,15.7,30.53,SSW,207,0.0,0.0,81,0.00,,,0.00,0,Wunderground v.1.15,2013-12-26 14:25:00,
2013-12-26 06:35:00,21.1,16.2,30.53,SSW,207,0.0,0.0,81,0.00,,,0.00,0,Wunderground v.1.15,2013-12-26 14:35:00,
2013-12-26 06:40:00,21.0,16.1,30.53,SSW,207,0.0,0.0,81,0.00,,,0.00,0,Wunderground v.1.15,2013-12-26 14:40:00,
2013-12-26 06:50:00,20.5,15.9,30.53,SSW,207,0.0,0.0,82,0.00,,,0.00,0,Wunderground v.1.15,2013-12-26 14:50:00,
2013-12-26 07:00:00,20.3,16.0,30.52,SSW,207,0.0,0.0,83,0.00,,,0.00,0,Wunderground v.1.15,2013-12-26 15:00:00,
2013-12-26 07:10:00,20.6,16.3,30.52,SSW,207,0.0,0.0,83,0.00,,,0.00,0,Wunderground v.1.15,2013-12-26 15:10:00,
2013-12-26 07:15:00,21.0,16.6,30.52,SSW,207,0.0,0.0,83,0.00,,,0.00,0,Wunderground v.1.15,2013-12-26 15:15:00,
2013-12-26 07:20:00,21.3,17.2,30.51,SSW,207,0.0,0.0,84,0.00,,,0.00,0,Wunderground v.1.15,2013-12-26 15:20:00,
2013-12-26 07:30:00,21.6,17.5,30.51,SSW,207,0.0,0.0,84,0.00,,,0.00,0,Wunderground v.1.15,2013-12-26 15:30:00,
2013-12-26 07:40:00,21.9,17.5,30.50,SSW,207,0.0,0.0,83,0.00,,,0.00,0,Wunderground v.1.15,2013-12-26 15:40:00,
2013-12-26 07:50:00,21.9,17.5,30.51,SSW,207,0.0,0.0,83,0.00,,,0.00,0,Wunderground v.1.15,2013-12-26 15:50:00,
2013-12-26 08:00:00,22.1,17.7,30.51,SSW,207,0.0,0.0,83,0.00,,,0.00,0,Wunderground v.1.15,2013-12-26 16:00:00,
2013-12-26 08:05:00,22.2,17.8,30.51,SSW,207,0.0,0.0,83,0.00,,,0.00,0,Wunderground v.1.15,2013-12-26 16:05:00,
2013-12-26 08:15:00,22.7,18.3,30.50,SSW,207,0.0,0.0,83,0.00,,,0.00,0,Wunderground v.1.15,2013-12-26 16:15:00,
2013-12-26 08:25:00,22.7,18.0,30.50,SSW,207,0.0,0.0,82,0.00,,,0.00,7,Wunderground v.1.15,2013-12-26 16:25:00,
2013-12-26 08:35:00,22.7,18.3,30.51,SSW,207,0.0,0.0,83,0.00,,,0.00,11,Wunderground v.1.15,2013-12-26 16:35:00,
2013-12-26 08:45:00,23.2,18.8,30.52,SSW,207,0.0,0.0,83,0.00,,,0.00,11,Wunderground v.1.15,2013-12-26 16:45:00,
2013-12-26 08:50:00,23.3,18.9,30.52,SSW,207,0.0,0.0,83,0.00,,,0.00,12,Wunderground v.1.15,2013-12-26 16:50:00,
2013-12-26 09:00:00,23.8,19.4,30.51,SSW,207,0.0,0.0,83,0.00,,,0.00,16,Wunderground v.1.15,2013-12-26 17:00:00,
2013-12-26 09:05:00,24.1,19.4,30.52,SSW,207,0.0,0.0,82,0.00,,,0.00,16,Wunderground v.1.15,2013-12-26 17:05:00,
2013-12-26 09:15:00,24.1,19.7,30.52,SSW,207,0.0,0.0,83,0.00,,,0.00,25,Wunderground v.1.15,2013-12-26 17:15:00,
2013-12-26 09:25:00,24.4,20.0,30.52,SSW,207,0.0,0.0,83,0.00,,,0.00,35,Wunderground v.1.15,2013-12-26 17:25:00,
2013-12-26 09:35:00,24.5,20.1,30.51,SSW,207,0.0,0.0,83,0.00,,,0.00,44,Wunderground v.1.15,2013-12-26 17:35:00,
2013-12-26 09:45:00,25.3,20.9,30.51,SSW,207,0.0,0.0,83,0.00,,,0.00,54,Wunderground v.1.15,2013-12-26 17:45:00,
2013-12-26 09:55:00,25.7,21.0,30.51,SSW,207,0.0,0.0,82,0.00,,,0.00,65,Wunderground v.1.15,2013-12-26 17:55:00,
2013-12-26 10:05:00,26.4,21.4,30.52,SSW,207,0.0,0.0,81,0.00,,,0.00,65,Wunderground v.1.15,2013-12-26 18:05:00,
2013-12-26 10:15:00,26.6,21.3,30.51,SSW,207,0.0,0.0,80,0.00,,,0.00,102,Wunderground v.1.15,2013-12-26 18:15:00,
2013-12-26 10:25:00,26.7,21.4,30.51,SSW,207,0.0,0.0,80,0.00,,,0.00,88,Wunderground v.1.15,2013-12-26 18:25:00,
2013-12-26 10:35:00,26.3,20.7,30.51,SSW,207,0.0,0.0,79,0.00,,,0.00,91,Wunderground v.1.15,2013-12-26 18:35:00,
2013-12-26 10:45:00,26.3,21.0,30.50,SSW,207,0.0,0.0,80,0.00,,,0.00,121,Wunderground v.1.15,2013-12-26 18:45:00,
2013-12-26 10:55:00,26.9,21.3,30.49,SSW,207,0.0,0.0,79,0.00,,,0.00,107,Wunderground v.1.15,2013-12-26 18:55:00,
2013-12-26 11:05:00,27.5,21.5,30.49,SSW,207,0.0,0.0,78,0.00,,,0.00,315,Wunderground v.1.15,2013-12-26 19:05:00,
2013-12-26 11:15:00,29.0,21.4,30.49,SSW,207,0.0,0.0,73,0.00,,,0.00,190,Wunderground v.1.15,2013-12-26 19:15:00,
2013-12-26 11:20:00,29.0,21.4,30.49,SSW,207,0.0,0.0,73,0.00,,,0.00,181,Wunderground v.1.15,2013-12-26 19:20:00,
2013-12-26 11:30:00,29.0,21.4,30.48,SSW,207,0.0,0.0,73,0.00,,,0.00,127,Wunderground v.1.15,2013-12-26 19:30:00,
2013-12-26 11:40:00,28.5,21.3,30.48,SSW,207,0.0,0.0,74,0.00,,,0.00,156,Wunderground v.1.15,2013-12-26 19:40:00,
2013-12-26 11:50:00,28.5,20.9,30.48,SSW,207,0.0,0.0,73,0.00,,,0.00,141,Wunderground v.1.15,2013-12-26 19:50:00,
2013-12-26 12:00:00,28.4,21.2,30.48,SSW,207,0.0,0.0,74,0.00,,,0.00,121,Wunderground v.1.15,2013-12-26 20:00:00,
2013-12-26 12:10:00,28.5,21.6,30.48,SSW,207,0.0,0.0,75,0.00,,,0.00,221,Wunderground v.1.15,2013-12-26 20:10:00,
2013-12-26 12:15:00,28.8,21.9,30.48,SSW,207,0.0,1.0,75,0.00,,,0.00,294,Wunderground v.1.15,2013-12-26 20:15:00,
2013-12-26 12:25:00,29.3,21.7,30.48,SSE,157,2.0,2.0,73,0.00,,,0.00,195,Wunderground v.1.15,2013-12-26 20:25:00,
2013-12-26 12:35:00,29.3,21.4,30.47,SSE,157,1.0,2.0,72,0.00,,,0.00,190,Wunderground v.1.15,2013-12-26 20:35:00,
2013-12-26 12:45:00,29.5,21.9,30.47,SSE,155,2.0,2.0,73,0.00,,,0.00,323,Wunderground v.1.15,2013-12-26 20:45:00,
2013-12-26 12:55:00,30.1,22.2,30.47,SSE,152,1.0,2.0,72,0.00,,,0.00,236,Wunderground v.1.15,2013-12-26 20:55:00,
2013-12-26 13:05:00,30.1,22.8,30.46,SSE,152,0.0,0.0,74,0.00,,,0.00,70,Wunderground v.1.15,2013-12-26 21:05:00,
2013-12-26 13:15:00,29.1,22.8,30.46,SSE,152,0.0,0.0,77,0.00,,,0.00,58,Wunderground v.1.15,2013-12-26 21:15:00,
2013-12-26 13:25:00,28.4,22.4,30.46,SSE,152,0.0,0.0,78,0.00,,,0.00,49,Wunderground v.1.15,2013-12-26 21:25:00,
2013-12-26 13:35:00,27.9,22.2,30.45,SSE,152,0.0,0.0,79,0.00,,,0.00,46,Wunderground v.1.15,2013-12-26 21:35:00,
2013-12-26 13:45:00,27.6,22.5,30.45,SSE,152,0.0,0.0,81,0.00,,,0.00,42,Wunderground v.1.15,2013-12-26 21:45:00,
2013-12-26 13:55:00,27.3,21.9,30.45,SSE,152,0.0,0.0,80,0.00,,,0.00,37,Wunderground v.1.15,2013-12-26 21:55:00,
2013-12-26 14:05:00,27.3,22.2,30.45,SSE,152,0.0,0.0,81,0.00,,,0.00,32,Wunderground v.1.15,2013-12-26 22:05:00,
2013-12-26 14:10:00,27.0,22.2,30.45,SSE,152,0.0,0.0,82,0.00,,,0.00,30,Wunderground v.1.15,2013-12-26 22:10:00,
2013-12-26 14:20:00,26.9,22.1,30.45,SSE,152,0.0,0.0,82,0.00,,,0.00,28,Wunderground v.1.15,2013-12-26 22:20:00,
2013-12-26 14:30:00,26.9,22.1,30.45,SSE,152,0.0,0.0,82,0.00,,,0.00,28,Wunderground v.1.15,2013-12-26 22:30:00,
2013-12-26 14:40:00,26.7,21.9,30.45,SSE,152,0.0,0.0,82,0.00,,,0.00,28,Wunderground v.1.15,2013-12-26 22:40:00,
2013-12-26 14:50:00,26.6,21.8,30.45,SSE,152,0.0,0.0,82,0.00,,,0.00,25,Wunderground v.1.15,2013-12-26 22:50:00,
2013-12-26 15:00:00,26.4,21.4,30.46,SSE,152,0.0,0.0,81,0.00,,,0.00,25,Wunderground v.1.15,2013-12-26 23:00:00,
2013-12-26 15:10:00,26.3,21.6,30.46,SSE,152,0.0,0.0,82,0.00,,,0.00,30,Wunderground v.1.15,2013-12-26 23:10:00,
2013-12-26 15:20:00,26.3,21.6,30.46,SSE,152,0.0,0.0,82,0.00,,,0.00,26,Wunderground v.1.15,2013-12-26 23:20:00,
2013-12-26 15:30:00,26.3,21.6,30.46,SSE,152,0.0,0.0,82,0.00,,,0.00,32,Wunderground v.1.15,2013-12-26 23:30:00,
2013-12-26 15:40:00,26.1,21.1,30.46,SSE,152,0.0,0.0,81,0.00,,,0.00,30,Wunderground v.1.15,2013-12-26 23:40:00,
2013-12-26 15:50:00,25.7,20.7,30.47,SSE,152,0.0,0.0,81,0.00,,,0.00,23,Wunderground v.1.15,2013-12-26 23:50:00,
2013-12-26 15:55:00,25.6,20.6,30.47,SSE,152,0.0,0.0,81,0.00,,,0.00,19,Wunderground v.1.15,2013-12-26 23:55:00,
2013-12-26 16:05:00,25.4,20.7,30.46,SSE,152,0.0,0.0,82,0.00,,,0.00,11,Wunderground v.1.15,2013-12-27 00:05:00,
2013-12-26 16:10:00,25.3,20.3,30.46,SSE,152,0.0,0.0,81,0.00,,,0.00,7,Wunderground v.1.15,2013-12-27 00:10:00,
2013-12-26 16:20:00,24.7,19.7,30.46,SSE,152,0.0,0.0,81,0.00,,,0.00,5,Wunderground v.1.15,2013-12-27 00:20:00,
2013-12-26 16:25:00,24.4,19.4,30.46,SSE,152,0.0,0.0,81,0.00,,,0.00,0,Wunderground v.1.15,2013-12-27 00:25:00,
2013-12-26 16:30:00,24.2,19.5,30.46,SSE,152,0.0,0.0,82,0.00,,,0.00,0,Wunderground v.1.15,2013-12-27 00:30:00,
2013-12-26 16:35:00,24.1,19.4,30.46,SSE,152,0.0,0.0,82,0.00,,,0.00,0,Wunderground v.1.15,2013-12-27 00:35:00,
2013-12-26 16:45:00,23.8,19.1,30.46,SSE,152,0.0,0.0,82,0.00,,,0.00,0,Wunderground v.1.15,2013-12-27 00:45:00,
2013-12-26 16:50:00,23.6,18.9,30.46,SSE,152,0.0,0.0,82,0.00,,,0.00,0,Wunderground v.1.15,2013-12-27 00:50:00,
2013-12-26 17:00:00,23.2,18.5,30.46,SSE,152,0.0,0.0,82,0.00,,,0.00,0,Wunderground v.1.15,2013-12-27 01:00:00,
2013-12-26 17:10:00,22.7,18.0,30.46,SSE,152,0.0,0.0,82,0.00,,,0.00,0,Wunderground v.1.15,2013-12-27 01:10:00,
2013-12-26 17:20:00,22.2,17.8,30.46,SSE,152,0.0,0.0,83,0.00,,,0.00,0,Wunderground v.1.15,2013-12-27 01:20:00,
2013-12-26 17:30:00,22.2,17.8,30.46,SSE,152,0.0,0.0,83,0.00,,,0.00,0,Wunderground v.1.15,2013-12-27 01:30:00,
2013-12-26 17:35:00,21.9,17.2,30.46,SSE,152,0.0,0.0,82,0.00,,,0.00,0,Wunderground v.1.15,2013-12-27 01:35:00,
2013-12-26 17:45:00,21.6,17.0,30.46,SSE,152,0.0,0.0,82,0.00,,,0.00,0,Wunderground v.1.15,2013-12-27 01:45:00,
2013-12-26 17:50:00,21.4,16.8,30.46,SSE,152,0.0,0.0,82,0.00,,,0.00,0,Wunderground v.1.15,2013-12-27 01:50:00,
2013-12-26 18:00:00,20.8,16.2,30.47,SSE,152,0.0,0.0,82,0.00,,,0.00,0,Wunderground v.1.15,2013-12-27 02:00:00,
2013-12-26 18:10:00,20.5,15.6,30.46,SSE,152,0.0,0.0,81,0.00,,,0.00,0,Wunderground v.1.15,2013-12-27 02:10:00,
2013-12-26 18:20:00,20.2,15.9,30.47,SSE,152,0.0,0.0,83,0.00,,,0.00,0,Wunderground v.1.15,2013-12-27 02:20:00,
2013-12-26 18:30:00,19.9,15.3,30.47,SSE,152,0.0,0.0,82,0.00,,,0.00,0,Wunderground v.1.15,2013-12-27 02:30:00,
2013-12-26 18:35:00,19.7,15.1,30.47,SSE,152,0.0,0.0,82,0.00,,,0.00,0,Wunderground v.1.15,2013-12-27 02:35:00,
2013-12-26 18:40:00,19.5,14.9,30.47,SSE,152,0.0,0.0,82,0.00,,,0.00,0,Wunderground v.1.15,2013-12-27 02:40:00,
2013-12-26 18:50:00,19.2,14.6,30.47,SSE,152,0.0,0.0,82,0.00,,,0.00,0,Wunderground v.1.15,2013-12-27 02:50:00,
2013-12-26 18:55:00,19.1,14.5,30.47,SSE,152,0.0,0.0,82,0.00,,,0.00,0,Wunderground v.1.15,2013-12-27 02:55:00,
2013-12-26 19:05:00,18.8,14.2,30.47,SSE,152,0.0,0.0,82,0.00,,,0.00,0,Wunderground v.1.15,2013-12-27 03:05:00,
2013-12-26 19:15:00,18.4,13.8,30.47,SSE,152,0.0,0.0,82,0.00,,,0.00,0,Wunderground v.1.15,2013-12-27 03:15:00,
2013-12-26 19:20:00,18.4,13.8,30.47,SSE,152,0.0,0.0,82,0.00,,,0.00,0,Wunderground v.1.15,2013-12-27 03:20:00,
2013-12-26 19:30:00,18.1,13.3,30.47,SSE,152,0.0,0.0,81,0.00,,,0.00,0,Wunderground v.1.15,2013-12-27 03:30:00,
2013-12-26 19:40:00,17.8,13.0,30.47,SSE,152,0.0,0.0,81,0.00,,,0.00,0,Wunderground v.1.15,2013-12-27 03:40:00,
2013-12-26 19:45:00,17.7,12.9,30.47,SSE,152,0.0,0.0,81,0.00,,,0.00,0,Wunderground v.1.15,2013-12-27 03:45:00,
2013-12-26 19:55:00,17.5,12.7,30.47,SSE,152,0.0,0.0,81,0.00,,,0.00,0,Wunderground v.1.15,2013-12-27 03:55:00,
2013-12-26 20:05:00,17.2,12.4,30.47,SSE,152,0.0,0.0,81,0.00,,,0.00,0,Wunderground v.1.15,2013-12-27 04:05:00,
2013-12-26 20:15:00,17.0,12.5,30.47,SSE,152,0.0,0.0,82,0.00,,,0.00,0,Wunderground v.1.15,2013-12-27 04:15:00,
2013-12-26 20:25:00,17.0,12.5,30.46,SSE,152,0.0,0.0,82,0.00,,,0.00,0,Wunderground v.1.15,2013-12-27 04:25:00,
2013-12-26 20:35:00,16.7,12.2,30.46,SSE,152,0.0,0.0,82,0.00,,,0.00,0,Wunderground v.1.15,2013-12-27 04:35:00,
2013-12-26 20:40:00,16.5,11.7,30.47,SSE,152,0.0,0.0,81,0.00,,,0.00,0,Wunderground v.1.15,2013-12-27 04:40:00,
2013-12-26 20:50:00,16.1,11.3,30.46,SSE,152,0.0,0.0,81,0.00,,,0.00,0,Wunderground v.1.15,2013-12-27 04:50:00,
2013-12-26 21:00:00,15.7,10.9,30.46,SSE,152,0.0,0.0,81,0.00,,,0.00,0,Wunderground v.1.15,2013-12-27 05:00:00,
2013-12-26 21:05:00,15.6,10.8,30.46,SSE,152,0.0,0.0,81,0.00,,,0.00,0,Wunderground v.1.15,2013-12-27 05:05:00,
2013-12-26 21:10:00,15.6,10.8,30.45,SSE,152,0.0,0.0,81,0.00,,,0.00,0,Wunderground v.1.15,2013-12-27 05:10:00,
2013-12-26 21:15:00,15.6,10.8,30.45,SSE,152,0.0,0.0,81,0.00,,,0.00,0,Wunderground v.1.15,2013-12-27 05:15:00,
2013-12-26 21:20:00,15.4,10.3,30.46,SSE,152,0.0,0.0,80,0.00,,,0.00,0,Wunderground v.1.15,2013-12-27 05:20:00,
2013-12-26 21:25:00,15.2,10.1,30.46,SSE,152,0.0,0.0,80,0.00,,,0.00,0,Wunderground v.1.15,2013-12-27 05:25:00,
2013-12-26 21:35:00,15.1,10.3,30.46,SSE,152,0.0,0.0,81,0.00,,,0.00,0,Wunderground v.1.15,2013-12-27 05:35:00,
2013-12-26 21:45:00,14.8,9.7,30.45,SSE,152,0.0,0.0,80,0.00,,,0.00,0,Wunderground v.1.15,2013-12-27 05:45:00,
2013-12-26 21:50:00,14.6,9.8,30.45,SSE,152,0.0,0.0,81,0.00,,,0.00,0,Wunderground v.1.15,2013-12-27 05:50:00,
2013-12-26 22:00:00,14.4,9.4,30.45,SSE,152,0.0,0.0,80,0.00,,,0.00,0,Wunderground v.1.15,2013-12-27 06:00:00,
2013-12-26 22:10:00,14.1,9.1,30.45,SSE,152,0.0,0.0,80,0.00,,,0.00,0,Wunderground v.1.15,2013-12-27 06:10:00,
2013-12-26 22:20:00,14.0,9.0,30.45,SSE,152,0.0,0.0,80,0.00,,,0.00,0,Wunderground v.1.15,2013-12-27 06:20:00,
2013-12-26 22:30:00,13.6,8.3,30.45,SSE,152,0.0,0.0,79,0.00,,,0.00,0,Wunderground v.1.15,2013-12-27 06:30:00,
2013-12-26 22:40:00,13.5,8.2,30.45,SSE,152,0.0,0.0,79,0.00,,,0.00,0,Wunderground v.1.15,2013-12-27 06:40:00,
2013-12-26 22:45:00,13.3,8.0,30.45,SSE,152,0.0,0.0,79,0.00,,,0.00,0,Wunderground v.1.15,2013-12-27 06:45:00,
2013-12-26 22:50:00,13.3,8.0,30.45,SSE,152,0.0,0.0,79,0.00,,,0.00,0,Wunderground v.1.15,2013-12-27 06:50:00,
2013-12-26 23:00:00,13.1,8.1,30.45,SSE,152,0.0,0.0,80,0.00,,,0.00,0,Wunderground v.1.15,2013-12-27 07:00:00,
2013-12-26 23:10:00,12.9,7.9,30.45,SSE,152,0.0,0.0,80,0.00,,,0.00,0,Wunderground v.1.15,2013-12-27 07:10:00,
2013-12-26 23:20:00,12.8,7.5,30.45,SSE,152,0.0,0.0,79,0.00,,,0.00,0,Wunderground v.1.15,2013-12-27 07:20:00,
2013-12-26 23:25:00,12.6,7.3,30.45,SSE,152,0.0,0.0,79,0.00,,,0.00,0,Wunderground v.1.15,2013-12-27 07:25:00,
2013-12-26 23:35:00,12.3,7.0,30.45,SSE,152,0.0,0.0,79,0.00,,,0.00,0,Wunderground v.1.15,2013-12-27 07:35:00,
2013-12-26 23:40:00,12.3,7.0,30.45,SSE,152,0.0,0.0,79,0.00,,,0.00,0,Wunderground v.1.15,2013-12-27 07:40:00,
2013-12-26 23:50:00,12.1,6.6,30.45,SSE,152,0.0,0.0,78,0.00,,,0.00,0,Wunderground v.1.15,2013-12-27 07:50:00,